User: anonymous   Login
Location: Unspecified
(0.0000°N, 0.0000°E)
Time: 11:22:17
(UTC+00:00)
Language:

USA 224 - Orbit

View from above orbital plane
View from above orbital plane
View from above satellite
View from above satellite

Ground track
Ground track

The orbit data is extracted from the following two-line orbital elements,

1 37348U 11002A   15183.99497816 0.00022000  00000-0  22034-3 0    01
2 37348  97.8793 295.7527 0539264  21.7434 338.2564 14.75773149    06
Epoch (UTC): 02 July 2015 23:52:46
Eccentricity: 0.0539264
inclination: 97.8793°
perigee height: 264 km
apogee height: 1021 km
right ascension of ascending node: 295.7527°
argument of perigee: 21.7434°
revolutions per day: 14.75773149
mean anomaly at epoch: 338.2564°
orbit number at epoch: 0

The dashed part of the orbit path shows where the satellite is in the earth's shadow,  

DLR